• In Hungary
  • List of Countries
  • For 7 days
  • Water Temperature
  • Satellite Maps
  • Weather Map
  • News
  • Weather Widgets
  • user-avatar
    Login

    Hourly Weather Prizren

    Today, 12 November, Monday

    Time Temperature Precipitation Wind Pressure Humidity
    00:00 +9°C° 0 mm 1 mps 705 mmHg 73%
    01:00 +8°C° 0 mm 1 mps 705 mmHg 74%
    02:00 +8°C° 0 mm 1 mps 705 mmHg 74%
    03:00 +8°C° 0 mm 1 mps 705 mmHg 74%
    04:00 +8°C° 0 mm 1 mps 705 mmHg 74%
    05:00 +8°C° 0 mm 1 mps 706 mmHg 74%
    06:00 +8°C° 0 mm 1 mps 706 mmHg 73%
    07:00 +8°C° 0 mm 1 mps 706 mmHg 69%
    08:00 +11°C° 0 mm 1 mps 707 mmHg 61%
    09:00 +13°C° 0 mm 1 mps 707 mmHg 52%
    10:00 +15°C° 0 mm 1 mps 707 mmHg 44%
    11:00 +16°C° 0 mm 1 mps 707 mmHg 40%
    12:00 +18°C° 0 mm 1 mps 707 mmHg 37%
    13:00 +18°C° 0 mm 1 mps 707 mmHg 34%
    14:00 +16°C° 0 mm 1 mps 707 mmHg 38%
    15:00 +15°C° 0 mm 1 mps 707 mmHg 41%
    16:00 +13°C° 0 mm 1 mps 706 mmHg 44%
    17:00 +12°C° 0 mm 1 mps 706 mmHg 46%
    18:00 +11°C° 0 mm 1 mps 706 mmHg 48%
    19:00 +10°C° 0 mm 1 mps 706 mmHg 49%
    20:00 +10°C° 0 mm 1 mps 707 mmHg 50%
    21:00 +10°C° 0 mm 1 mps 707 mmHg 50%
    22:00 +9°C° 0 mm 1 mps 707 mmHg 50%
    23:00 +9°C° 0 mm 1 mps 707 mmHg 49%

    Tomorrow, 13 November, Tuesday

    Time Temperature Precipitation Wind Pressure Humidity
    00:00 +9°C° 0 mm 1 mps 707 mmHg 49%
    01:00 +9°C° 0 mm 1 mps 707 mmHg 49%
    02:00 +9°C° 0 mm 1 mps 707 mmHg 48%
    03:00 +8°C° 0 mm 1 mps 707 mmHg 48%
    04:00 +8°C° 0 mm 1 mps 707 mmHg 47%
    05:00 +8°C° 0 mm 1 mps 707 mmHg 47%
    06:00 +8°C° 0 mm 1 mps 707 mmHg 46%
    07:00 +8°C° 0 mm 1 mps 707 mmHg 46%
    08:00 +11°C° 0 mm 1 mps 707 mmHg 41%
    09:00 +13°C° 0 mm 1 mps 708 mmHg 35%
    10:00 +16°C° 0 mm 1 mps 708 mmHg 30%
    11:00 +18°C° 0 mm 1 mps 708 mmHg 28%
    12:00 +19°C° 0 mm 1 mps 708 mmHg 27%
    13:00 +20°C° 0 mm 1 mps 707 mmHg 25%
    14:00 +18°C° 0 mm 1 mps 707 mmHg 29%
    15:00 +16°C° 0 mm 1 mps 707 mmHg 34%
    16:00 +14°C° 0 mm 1 mps 706 mmHg 38%
    17:00 +13°C° 0 mm 1 mps 706 mmHg 40%
    18:00 +12°C° 0 mm 1 mps 706 mmHg 42%
    19:00 +11°C° 0 mm 1 mps 706 mmHg 44%
    20:00 +11°C° 0 mm 1 mps 706 mmHg 44%
    21:00 +10°C° 0 mm 1 mps 706 mmHg 45%
    22:00 +10°C° 0 mm 1 mps 706 mmHg 45%
    23:00 +10°C° 0 mm 1 mps 706 mmHg 46%

    Day after tomorrow, 14 November, Wednesday

    Time Temperature Precipitation Wind Pressure Humidity
    00:00 +10°C° 0 mm 1 mps 706 mmHg 47%
    01:00 +9°C° 0 mm 1 mps 706 mmHg 47%
    02:00 +9°C° 0 mm 1 mps 706 mmHg 49%
    03:00 +9°C° 0 mm 1 mps 706 mmHg 50%
    04:00 +8°C° 0 mm 1 mps 705 mmHg 51%
    05:00 +8°C° 0 mm 1 mps 705 mmHg 53%
    06:00 +8°C° 0 mm 1 mps 706 mmHg 54%
    07:00 +8°C° 0 mm 1 mps 706 mmHg 56%
    08:00 +9°C° 0 mm 2 mps 706 mmHg 53%
    09:00 +13°C° 0 mm 2 mps 706 mmHg 50%
    10:00 +15°C° 0 mm 2 mps 707 mmHg 47%
    11:00 +14°C° 0 mm 3 mps 706 mmHg 49%
    12:00 +14°C° 0 mm 3 mps 706 mmHg 50%
    13:00 +16°C° 0 mm 3 mps 706 mmHg 52%
    14:00 +14°C° 0 mm 3 mps 705 mmHg 57%
    15:00 +14°C° 0 mm 2 mps 705 mmHg 61%
    16:00 +13°C° 0 mm 2 mps 705 mmHg 66%
    17:00 +10°C° 0 mm 2 mps 705 mmHg 72%
    18:00 +9°C° 0 mm 2 mps 705 mmHg 78%
    19:00 +8°C° 0 mm 2 mps 705 mmHg 83%
    20:00 +7°C° 0 mm 2 mps 705 mmHg 84%
    21:00 +7°C° 0 mm 2 mps 705 mmHg 84%
    22:00 +6°C° 0 mm 2 mps 705 mmHg 85%
    23:00 +6°C° 0 mm 2 mps 705 mmHg 84%

    15 November, Thursday

    Time Temperature Precipitation Wind Pressure Humidity
    00:00 +5°C° 0 mm 2 mps 705 mmHg 83%
    01:00 +5°C° 0 mm 2 mps 705 mmHg 82%
    02:00 +4°C° 0 mm 2 mps 704 mmHg 81%
    03:00 +4°C° 0 mm 2 mps 704 mmHg 79%
    04:00 +4°C° 0 mm 2 mps 704 mmHg 77%
    05:00 +4°C° 0 mm 2 mps 704 mmHg 77%
    06:00 +3°C° 0 mm 2 mps 704 mmHg 77%
    07:00 +3°C° 0 mm 2 mps 704 mmHg 77%
    08:00 +5°C° 0 mm 2 mps 704 mmHg 69%
    09:00 +7°C° 0 mm 3 mps 705 mmHg 62%
    10:00 +8°C° 0 mm 4 mps 705 mmHg 54%
    11:00 +8°C° 0 mm 4 mps 704 mmHg 51%
    12:00 +10°C° 0 mm 4 mps 704 mmHg 48%
    13:00 +10°C° 0 mm 4 mps 704 mmHg 46%
    14:00 +9°C° 0 mm 3 mps 704 mmHg 49%
    15:00 +8°C° 0 mm 3 mps 703 mmHg 53%
    16:00 +7°C° 0 mm 3 mps 703 mmHg 57%
    17:00 +5°C° 0 mm 3 mps 704 mmHg 62%
    18:00 +5°C° 0 mm 2 mps 704 mmHg 68%
    19:00 +4°C° 0 mm 2 mps 704 mmHg 73%
    20:00 +4°C° 0 mm 2 mps 704 mmHg 76%
    21:00 +3°C° 0 mm 2 mps 704 mmHg 79%
    22:00 +3°C° 0 mm 2 mps 705 mmHg 82%
    23:00 +3°C° 0 mm 2 mps 705 mmHg 83%

    16 November, Friday

    Time Temperature Precipitation Wind Pressure Humidity
    00:00 +2°C° 0 mm 2 mps 705 mmHg 84%
    01:00 +2°C° 0 mm 2 mps 705 mmHg 85%
    02:00 +2°C° 0 mm 2 mps 705 mmHg 85%
    03:00 +2°C° 0 mm 2 mps 705 mmHg 86%
    04:00 +2°C° 0 mm 2 mps 705 mmHg 86%
    05:00 +2°C° 0 mm 2 mps 705 mmHg 87%
    06:00 +2°C° 0 mm 2 mps 705 mmHg 87%
    07:00 +2°C° 0 mm 2 mps 705 mmHg 87%
    08:00 +3°C° 0 mm 2 mps 705 mmHg 79%
    09:00 +5°C° 0 mm 2 mps 706 mmHg 70%
    10:00 +5°C° 0 mm 3 mps 706 mmHg 62%
    11:00 +7°C° 0 mm 3 mps 706 mmHg 57%
    12:00 +8°C° 0 mm 3 mps 705 mmHg 53%
    13:00 +8°C° 0 mm 3 mps 705 mmHg 48%
    14:00 +7°C° 0 mm 3 mps 705 mmHg 51%
    15:00 +7°C° 0 mm 3 mps 705 mmHg 54%
    16:00 +5°C° 0 mm 3 mps 705 mmHg 57%
    17:00 +4°C° 0 mm 3 mps 705 mmHg 63%
    18:00 +4°C° 0 mm 2 mps 705 mmHg 68%
    19:00 +3°C° 0 mm 2 mps 705 mmHg 74%
    20:00 +2°C° 0 mm 2 mps 706 mmHg 76%
    21:00 +2°C° 0 mm 2 mps 706 mmHg 79%
    22:00 +1°C° 0 mm 2 mps 706 mmHg 82%
    23:00 +1°C° 0 mm 2 mps 706 mmHg 84%

    17 November, Saturday

    Time Temperature Precipitation Wind Pressure Humidity
    00:00 -1°C° 0 mm 2 mps 706 mmHg 85%
    01:00 -1°C° 0 mm 2 mps 706 mmHg 86%
    02:00 -1°C° 0 mm 2 mps 706 mmHg 87%
    03:00 -2°C° 0 mm 2 mps 706 mmHg 87%
    04:00 -2°C° 0 mm 2 mps 705 mmHg 88%
    05:00 -2°C° 0 mm 2 mps 706 mmHg 87%
    06:00 -2°C° 0 mm 2 mps 706 mmHg 87%
    07:00 -2°C° 0 mm 2 mps 706 mmHg 86%
    08:00 +1°C° 0 mm 2 mps 706 mmHg 75%
    09:00 +3°C° 0 mm 2 mps 706 mmHg 64%
    10:00 +3°C° 0 mm 3 mps 706 mmHg 54%
    11:00 +4°C° 0 mm 3 mps 706 mmHg 50%
    12:00 +5°C° 0 mm 3 mps 705 mmHg 46%
    13:00 +7°C° 0 mm 3 mps 705 mmHg 43%
    14:00 +5°C° 0 mm 3 mps 705 mmHg 45%
    15:00 +4°C° 0 mm 3 mps 705 mmHg 47%
    16:00 +3°C° 0 mm 3 mps 705 mmHg 50%
    17:00 +3°C° 0 mm 2 mps 705 mmHg 53%
    18:00 +2°C° 0 mm 2 mps 705 mmHg 56%
    19:00 +1°C° 0 mm 2 mps 705 mmHg 60%
    20:00 +1°C° 0 mm 2 mps 705 mmHg 62%
    21:00 -1°C° 0 mm 2 mps 705 mmHg 64%
    22:00 -1°C° 0 mm 2 mps 705 mmHg 66%
    23:00 -1°C° 0 mm 2 mps 705 mmHg 67%
    Show more